Regional Weather Roundup
Issued by NWS Newport/Morehead, NC

Current Version | Previous Version | Graphics & Text | Print | Product List | Glossary Off
Versions: 1 2 3 4 5 6 7 8 9 10 11 12 13 14 15 16 17 18 19 20 21 22 23 24 25 26 27 28 29 30 31 32 33 34 35 36 37 38 39 40 41 42 43 44 45 46 47 48 49 50

000
ASUS42 KMHX 300222
RWRMHX
WEATHER ROUNDUP FOR EASTERN NORTH CAROLINA
NATIONAL WEATHER SERVICE NEWPORT/MOREHEAD CITY NC
1000 PM EDT FRI AUG 29 2014

NOTE: "FAIR" INDICATES FEW OR NO CLOUDS BELOW 12,000 FEET
WITH NO SIGNIFICANT WEATHER AND/OR OBSTRUCTIONS TO VISIBILITY

NCZ015>017-031-032-045>047-102-103-300300-
NORTH COAST

CITY           SKY/WX    TMP DP  RH WIND       PRES   REMARKS
EDENTON        CLOUDY    75  67  76 E6        30.18S
ELIZABETH CITY MOCLDY    74  65  73 E7        30.19R
KITTY HAWK     MOCLDY    75  65  70 E6        30.17R
MANTEO         CLOUDY    75  65  70 E12       30.18S

$$

NCZ045>047-081-094-103-104-300300-
CENTRAL COAST

CITY           SKY/WX    TMP DP  RH WIND       PRES   REMARKS
FRISCO         PTCLDY    77  75  93 E9        30.16R
SWANQUARTER      N/A     73 N/A N/A E5        30.12S

$$

NCZ095-097-098-100-101-300300-
SOUTHERN COAST

CITY           SKY/WX    TMP DP  RH WIND       PRES   REMARKS
BEAUFORT       CLEAR     78  75  90 NE3       30.15R
CEDAR ISLAND     N/A     77 N/A N/A E3        30.18S
JACKSONVILLE   CLEAR     78  73  84 E7        30.15R
NEWPORT        NOT AVBL
PINEY ISLAND   CLEAR     80  77  90 CALM      30.15R
WILMINGTON     CLEAR     77  71  82 S3        30.14R


$$

NCZ011>013-027>030-043-044-078>080-089-090>093-098-300300-
COASTAL PLAIN

CITY           SKY/WX    TMP DP  RH WIND       PRES   REMARKS
AHOSKIE        PTCLDY    72  66  81 E3        30.19S
CLINTON        CLOUDY    79  73  83 CALM      30.16R
ELIZABETHTOWN  CLEAR     76  69  77 CALM      30.15R
GOLDSBORO      CLEAR     76  75  98 E5        30.14R
GREENVILLE     CLEAR     73  68  83 E5        30.18S
HAVELOCK       CLEAR     77  73  87 E5        30.16R
KENANSVILLE    PTCLDY    77  73  86 CALM      30.16R
KINSTON        CLEAR     76  73  88 E3        30.17R
NEW BERN       CLEAR     78  72  81 E5        30.17R
RICHLANDS      PTCLDY    75  72  88 NE6       30.16R
ROANOKE RAPIDS NOT AVBL
ROCKY MOUNT    CLOUDY    75  68  78 VRB3      30.17R
WASHINGTON     CLEAR     73  68  84 E3        30.18R
WHITEVILLE     CLEAR     77  72  84 CALM      30.13S

$$

AMZ130-135-150-152-154-156-158-170-250-252-270-ANZ085-086-088-633-658-670-300300-
MARINE OBSERVATIONS

STATION/POSITION TIME  TEMP    WIND        PRES    WAVE   SWELL
                       AIR SEA DIR/SP/G            HT/PER HT/PER
                 (UTC) (F)     (DEG/KT/KT) (MB)    (FT/S) (FT/S)
CHESAPEAKE LIGHT 0200   74     100/ 11/ 12 1023.2
BUOY 44014       0200   76 77  100/  8/ 10 1022.1    3/ 8   3/ 8
DUCK             0200   76 78   80/ 14/ 16 1021.4
2E DUCK          0200                        N/A     3/ 6
OREGON INLET     0200   76 79   60/ 12/ 16 1021.7
BUOY 44095       0200      77                N/A     4/ 8
20E OREGON INLET NOT AVBL
HATTERAS CG      0200   79 82  110/  8/ 12 1021.7
DIAMOND BUOY     0200   78      40/ 12/ 14 1020.9    4/ 7   3/ 7
CAPE LOOKOUT     0200   80      70/  3/  3 1020.8
BEAUFORT LAB     0200   78 82   50/  2/  3 1020.4
30 SE NEW RIVER  0200   82 82  160/  8/ 10 1020.9    3/ 8   3/ 8
5 SE WRIGHTSVILL 0200   78 82  180/ 12/ 14   N/A
BUOY 41002       0120   81 83  100/  8/ 10 1021.6    3/ 9   3/ 9
BUOY 41004       0200   83 83  150/  8/ 10 1019.3    2/ 8   2/ 8

$$



USA.gov is the U.S. government's official web portal to all federal, state and local government web resources and services.